Погода в Новокувинском

Россия / Карачаево-Черкесская Республика     44°23′46″N   41°46′58″E
темп.,
°C
ветер,
м/с
пор.,
м/с
влажн.,
%
обл.,
%
осадки,
мм/ч
давл.,
гПа
погр.,
м
12 мая, ср
ср1200:00+6ссв2294100 0.0 101647
03:00+4юв119595 0.0 101710
06:00+5зюз00935 0.0 101844
09:00+11в23751 0.0 1016523
12:00+16в55624 0.0 10151197
15:00+17в67585 0.0 10141215
18:00+15в610715 0.0 1014646
21:00+10в2286100 0.0 101424
13 мая, чт
чт1300:00+9ююв33900 0.0 101334
03:00+8ю32880 0.0 101323
06:00+9ююв33700 0.0 101449
09:00+17вюв22530 0.0 1013309
12:00+21всв44551 0.0 1013686
15:00+23в45554 0.0 1012998
18:00+20в47735 0.0 1013288
21:00+14в22875 0.0 101422
14 мая, пт
пт1400:00+13юв339299 0.0 101342
03:00+13ююв347997 0.0 101347
06:00+13ююв45643 0.0 101361
09:00+22юв34510 0.0 1012265
12:00+27в22450 0.0 1011561
15:00+27всв45500 0.0 1011906
18:00+24в47750 0.0 1011226
21:00+18юв33863 0.0 101231
15 мая, сб
сб1500:00+16ююв35890 0.0 101162
03:00+15ююз337299 0.0 101225
06:00+16зюз34765 0.0 101497
09:00+22зсз45704 0.0 1014533
12:00+25ссз44606 0.0 10141023
15:00+25ссв45611 0.0 10131099
18:00+22ссз3579100 0.0 1013241
21:00+18ссв119090 0.3 101311
16 мая, вс
вс1600:00+17ююв22935 0.0 101217
03:00+16ююв229323 0.0 101125
06:00+17юв239232 0.0 101077
09:00+23в367412 0.0 1008660
12:00+25в6863100 0.0 10071178
15:00+26в896318 0.0 10051384
18:00+22в5126597 0.0 1005455
21:00+18в41172100 0.0 1005223